Lumberton, NC

3:36 AM EDT on April 22, 2018 (GMT -0400)
Lumberton Municipal

Weather History for KLBT - June, 2014

Change the Weather History Date:

Wednesday, June 11, 2014

  Actual Average Record
Temperature  
Mean Temperature 84 °F 77 °F  
Max Temperature 95 °F 88 °F 97 °F (2008)
Min Temperature 72 °F 67 °F 57 °F (2002)
Degree Days  
Heating Degree Days 0 0  
Month to date heating degree days 0 0  
Since 1 June heating degree days 0 0  
Since 1 July heating degree days 2945 2761  
Cooling Degree Days 19 12  
Month to date cooling degree days 143 120  
Year to date cooling degree days 431 370  
Since 1 June cooling degree days 143 120  
Growing Degree Days 34 (Base 50)    
Moisture  
Dew Point 70 °F    
Average Humidity 66    
Maximum Humidity 93    
Minimum Humidity 39    
Precipitation  
Precipitation 0.03 in 0.16 in 1.57 in (2006)
Month to date precipitation 1.09 1.79  
Year to date precipitation 18.35 16.86  
Sea Level Pressure  
Sea Level Pressure 29.92 in    
Wind  
Wind Speed 3 mph (SSE)    
Max Wind Speed 18 mph    
Max Gust Speed 25 mph    
Visibility 10 miles    
Events Thunderstorm    
T = Trace of Precipitation, MM = Missing Value Source: NWS Daily Summary

Daily Weather History Graph

Daily Weather History Graph

Search for Another Location

Airport or City:

Astronomy

Jun. 11, 2014 Rise Set
Actual Time 6:02 AM EDT 8:29 PM EDT
Civil Twilight 5:33 AM EDT 8:58 PM EDT
Nautical Twilight 4:57 AM EDT 9:34 PM EDT
Astronomical Twilight 4:17 AM EDT 10:14 PM EDT
Moon 7:00 PM EDT (6/11) 4:46 AM EDT (6/11)
Length of Visible Light 15h 25m
Length of Day
14h 26m
Waxing Gibbous, 97% of the Moon is Illuminated
Jun 11
Waxing Gibbous
Jun 13
Full
Jun 19
Last Quarter
Jun 27
New
Jul 5
First Quarter

Hourly Weather History & Observations

Time (EDT) Temp. Heat Index Dew Point Humidity Pressure Visibility Wind Dir Wind Speed Gust Speed Precip Events Conditions
12:54 AM 78.1 °F - 69.1 °F 74% 29.93 in 10.0 mi South 4.6 mph - N/A   Clear
1:54 AM 77.0 °F - 69.1 °F 76% 29.94 in 10.0 mi Variable 5.8 mph - N/A   Clear
2:54 AM 75.9 °F - 70.0 °F 82% 29.94 in 10.0 mi SSW 4.6 mph - N/A   Clear
3:54 AM 75.0 °F - 70.0 °F 84% 29.93 in 10.0 mi Calm Calm - N/A   Clear
4:54 AM 73.9 °F - 70.0 °F 87% 29.94 in 10.0 mi Calm Calm - N/A   Clear
5:54 AM 72.0 °F - 70.0 °F 93% 29.94 in 9.0 mi Calm Calm - N/A   Clear
6:54 AM 73.9 °F - 71.1 °F 91% 29.95 in 8.0 mi Calm Calm - N/A   Clear
7:54 AM 79.0 °F - 71.1 °F 77% 29.95 in 10.0 mi Calm Calm - N/A   Clear
8:54 AM 82.0 °F 85.5 °F 69.1 °F 65% 29.96 in 10.0 mi NE 3.5 mph - N/A   Clear
10:54 AM 89.1 °F 95.0 °F 71.1 °F 55% 29.96 in 10.0 mi SE 8.1 mph - N/A   Clear
11:54 AM 89.1 °F 92.1 °F 66.9 °F 48% 29.96 in 10.0 mi Calm Calm - N/A   Partly Cloudy
12:54 PM 91.0 °F 95.2 °F 68.0 °F 47% 29.95 in 10.0 mi South 4.6 mph - N/A   Partly Cloudy
1:54 PM 95.0 °F 99.0 °F 66.9 °F 40% 29.92 in 10.0 mi Calm Calm - N/A   Clear
2:39 PM 90.0 °F 92.8 °F 66.9 °F 46% 29.90 in 10.0 mi SSE 15.0 mph 25.3 mph N/A Thunderstorm Scattered Clouds
2:54 PM 84.0 °F 87.0 °F 68.0 °F 58% 29.91 in 10.0 mi SSE 12.7 mph - N/A Thunderstorm Scattered Clouds
3:54 PM 75.9 °F - 69.1 °F 79% 29.90 in 10.0 mi East 3.5 mph - 0.03 in   Clear
4:54 PM 79.0 °F - 71.1 °F 77% 29.88 in 10.0 mi Variable 3.5 mph - 0.00 in   Scattered Clouds
5:54 PM 80.1 °F 83.2 °F 70.0 °F 71% 29.86 in 10.0 mi SSE 4.6 mph - N/A   Clear
6:54 PM 79.0 °F - 70.0 °F 74% 29.87 in 10.0 mi SSE 3.5 mph - N/A   Clear
7:54 PM 79.0 °F - 71.1 °F 77% 29.89 in 10.0 mi South 3.5 mph - N/A   Clear
8:54 PM 77.0 °F - 72.0 °F 84% 29.91 in 10.0 mi ESE 3.5 mph - N/A   Clear
9:54 PM 75.0 °F - 71.1 °F 87% 29.91 in 10.0 mi Calm Calm - N/A   Clear
10:54 PM 75.0 °F - 71.1 °F 87% 29.92 in 9.0 mi Calm Calm - N/A   Partly Cloudy
11:54 PM 73.9 °F - 71.1 °F 91% 29.91 in 8.0 mi Calm Calm - N/A   Clear